If you wish to contribute or participate in the discussions about articles you are invited to join SKYbrary as a registered user

 Actions

Innsbruck

From SKYbrary Wiki

LOWI
Airport
ICAO: LOWI
Summary
Name Innsbruck
Region Europe
Territory Austria AT.gif
Location Innsbruck, Austria
Serving
Coordinates 47° 15' 36.00" N, 11° 20' 36.00" E
Runways
Designator Length Width Surface ROPS
8/26 2000 m6,561.68 ft
45 m147.638 ft
ASP yes/yes


METAR
Observation LOWI 252150Z 12004KT 9999 FEW060 SCT080 05/03 Q1000 NOSIG
Station Innsbruck-Flughafen
Date/Time 25 February 2020 21:50:00
Wind direction 120°
Wind speed 04 kts
Lowest cloud amount few clouds
Temperature 5°C
Dew point 3°C
Humidity 86%
QNH 1000 hPa
Weather condition n/a


Innsbruck Airport

ICAO: LOWI IATA: INN

Description

International airport serving the Tyrol.

Climatology

Humid Continental climate (Köppen climate classification Dfb) - Variable weather patterns and a large seasonal temperature variance. Summers are often warm and humid with frequent thunderstorms and winters can be very cold with frequent snowfall and persistent snow cover.

Maps

Terrain

Loading map...

Airport Layout

Loading map...


Accidents & Serious Incidents at or in vicinity of LOWI

None on SKYbrary